Back to catalog

OPS 3899

AliveMilitaryPO
NORAD 14139·PAYLOAD·🇺🇸 United States

Launched Jun 20, 1983 from Vandenberg Space Force Base

Loading…

Next Passes (next 24 hours)

TLE

FreshSource: Space-Track

Epoch: Sep 14, 2026, 13:32 UTC

1 14139U 83060C   26257.56453181 -.00000245  00000-0 -81630-3 0  9994
2 14139  96.6608 115.8365 0001631 119.1377 240.9898 12.93991149347398

Track OPS 3899 in real time with AllMySat

Download on the App Store